Regional Weather Roundup
Issued by NWS Newport/Morehead, NC

Current Version | Previous Version | Text Only | Print | Product List | Glossary Off
Versions: 1 2 3 4 5 6 7 8 9 10 11 12 13 14 15 16 17 18 19 20 21 22 23 24 25 26 27 28 29 30 31 32 33 34 35 36 37 38 39 40 41 42 43 44 45 46 47 48 49 50
000 ASUS42 KMHX 310513 RWRMHX WEATHER ROUNDUP FOR EASTERN NORTH CAROLINA NATIONAL WEATHER SERVICE NEWPORT/MOREHEAD CITY NC 100 AM EDT TUE MAY 31 2016 NOTE: "FAIR" INDICATES FEW OR NO CLOUDS BELOW 12,000 FEET WITH NO SIGNIFICANT WEATHER AND/OR OBSTRUCTIONS TO VISIBILITY NCZ015>017-031-032-045>047-102-103-310600- NORTH COAST CITY SKY/WX TMP DP RH WIND PRES REMARKS EDENTON CLOUDY N/A N/A N/A SE3 29.94F ELIZABETH CITY PTCLDY 70 68 93 E3 29.93F KITTY HAWK FOG 68 68 100 CALM 29.92F VSB 1/4 MANTEO NOT AVBL $$ NCZ045>047-081-094-103-104-310600- CENTRAL COAST CITY SKY/WX TMP DP RH WIND PRES REMARKS FRISCO PTCLDY 71 69 93 CALM 29.92F $$ NCZ095-097-098-100-101-310600- SOUTHERN COAST CITY SKY/WX TMP DP RH WIND PRES REMARKS BEAUFORT CLOUDY 74 72 93 CALM 29.92F CEDAR ISLAND NOT AVBL JACKSONVILLE CLOUDY 75 72 90 E7 29.90F PINEY ISLAND CLOUDY N/A N/A N/A CALM 29.92 WILMINGTON CLEAR 72 70 93 CALM 29.90F $$ NCZ011>013-027>030-043-044-078>080-089-090>093-098-310600- COASTAL PLAIN CITY SKY/WX TMP DP RH WIND PRES REMARKS AHOSKIE PTCLDY 69 68 97 CALM 29.95S CLINTON PTCLDY 72 72 100 CALM 29.92S ELIZABETHTOWN MOCLDY 71 71 100 CALM 29.91S GOLDSBORO NOT AVBL GREENVILLE CLEAR 70 70 100 CALM 29.95F HAVELOCK PTCLDY 72 70 93 CALM 29.94S KENANSVILLE CLOUDY 71 70 98 CALM 29.93S KINSTON MOCLDY 71 70 98 E3 29.94S NEW BERN PTCLDY 71 69 93 CALM 29.94S RICHLANDS MOCLDY 72 71 97 NE6 29.92F ROCKY MOUNT MOCLDY 69 69 100 NE3 29.94S WASHINGTON CLOUDY 69 69 99 CALM 29.93F FOG WHITEVILLE PTCLDY 71 70 96 CALM 29.90S $$ AMZ130-135-150-152-154-156-158-170-250-252-270-ANZ085-086-088-633-658-670-310600- MARINE OBSERVATIONS STATION/POSITION TIME TEMP WIND PRES WAVE SWELL AIR SEA DIR/SP/G HT/PER HT/PER (UTC) (F) (DEG/KT/KT) (MB) (FT/S) (FT/S) CHESAPEAKE LIGHT 0500 69 80/ 9/ 10 1014.6 64 E VA BEACH 0450 67 64 60/ 10/ 12 1013.4 5/ 8 5/ 8 DUCK 0400 65 59 40/ 3/ 6 1013.3 2 E DUCK 0411 61 N/A 3/ 7 OREGON INLET 0400 70 73 30/ 4/ 6 1013.6 13E OREGON INLT 0500 65 N/A 5/ 7 5/ 7 HATTERAS CG 0400 73 74 250/ 2/ 2 1013.4 DIAMOND BUOY 0450 77 80 220/ 10/ 12 1013.1 6/ 8 5/ 8 CAPE LOOKOUT 0500 75 140/ 6/ 7 1012.8 BEAUFORT LAB 0400 75 76 130/ 4/ 6 1012.7 30 SE NEW RVR IN 0425 76 N/A 5/ 7 27 SE WRIGHTSVLE 0408 72 76 140/ 4/ 8 1012.9 5 SE WRIGHTSVLE 0408 75 77 100/ 10/ 14 1013.6 225 S CAPE HAT 0450 76 76 160/ 12/ 14 1015.0 5/ 8 5/ 8 41 SE CHARLESTON 0450 74 77 250/ 14/ 16 1011.2 3/ 8 3/ 8 $$

USA.gov is the U.S. government's official web portal to all federal, state and local government web resources and services.